Regional Weather Roundup
Issued by NWS

Current Version | Previous Version | Text Only | Print | Product List | Glossary On
Versions: 1 2 3 4 5 6 7 8 9 10 11 12 13 14 15 16 17 18 19 20 21 22 23 24 25 26 27 28 29 30 31 32 33 34 35 36 37 38 39 40 41 42 43 44 45 46 47 48 49 50
000
ASUS45 KPSR 231010
RWRAZ

ARIZONA REGIONAL HOURLY WEATHER ROUNDUP
NATIONAL WEATHER SERVICE PHOENIX AZ
300 AM MST WED JUL 23 2014

NOTE: FAIR INDICATES FEW OR NO CLOUDS BELOW 12,000 FEET WITH NO
SIGNIFICANT WEATHER AND/OR OBSTRUCTIONS TO VISIBILITY.

AZZ001>003-036-231100-
NORTHWEST ARIZONA

CITY           SKY/WX    TMP DP  RH WIND       PRES   REMARKS
BULLHEAD CITY  CLEAR     90  28  11 CALM      29.85S
KINGMAN        CLEAR     75  33  21 SW3       30.09S
$$

AZZ004>008-015-016-018-231100-
NORTH CENTRAL ARIZONA

CITY           SKY/WX    TMP DP  RH WIND       PRES   REMARKS
GRAND CANYON   CLEAR     53  41  63 CALM      30.37F HAZE
WILLIAMS       PTCLDY    57  41  54 S8        30.44S
PRESCOTT       PTCLDY    70  42  36 CALM      30.24S
FLAGSTAFF      PTCLDY    57  40  52 CALM      30.41F
PAYSON         PTCLDY    72  46  40 CALM      30.28F
PAGE           CLOUDY    85  33  15 S5        30.15R
$$

AZZ009>014-017-231100-
NORTHEAST ARIZONA

CITY           SKY/WX    TMP DP  RH WIND       PRES   REMARKS
WINSLOW        MOCLDY    75  45  34 W5        30.22F
SAINT JOHNS    CLOUDY    72  52  49 SE9       30.30S
WINDOW ROCK    MOCLDY    66  47  50 CALM      30.43S
SHOW LOW       PTCLDY    66  46  48 S13       30.38S
$$

AZZ023-231100-
GREATER PHOENIX AREA

CITY           SKY/WX    TMP DP  RH WIND       PRES   REMARKS
PHOENIX        CLOUDY    95  52  23 SE6       29.87R
BUCKEYE          N/A     91  45  19 CALM      29.87S
LUKE AFB       NOT AVBL
DEER VALLEY    CLOUDY    92  47  21 E5        29.90R
SCOTTSDALE     CLOUDY    94  52  24 CALM      29.91S
MESA-GATEWAY   MOCLDY    97  50  20 SE9       29.92F
$$

AZZ027-028-231100-
SOUTHWEST MARICOPA COUNTY AND PINAL COUNTY

CITY           SKY/WX    TMP DP  RH WIND       PRES   REMARKS
CASA GRANDE    MOCLDY    97  52  21 CALM      29.91F
$$

AZZ503-504-507>509-231100-
SOUTHEAST ARIZONA

CITY           SKY/WX    TMP DP  RH WIND       PRES   REMARKS
TUCSON         MOCLDY    89  58  34 SE10      30.04F
DAVIS-MONTHAN  CLOUDY    87  58  37 SE10      30.03S
NOGALES        MOCLDY    80  57  45 SW5       30.16S
SIERRA VISTA   MOCLDY    75  55  50 S15       30.21F
DOUGLAS        CLOUDY    72  61  68 S3        30.18F
SAFFORD        PTCLDY    82  59  45 E12       30.11F
$$

AZZ020-021-025-026-031-231100-
SOUTHWEST ARIZONA

CITY           SKY/WX    TMP DP  RH WIND       PRES   REMARKS
YUMA           CLEAR     89  46  22 CALM      29.81S
$$

CAZ031-033-041-043-047-048-061-231100-
SOUTHERN CALIFORNIA

CITY           SKY/WX    TMP DP  RH WIND       PRES   REMARKS
DOWNTOWN L.A.  CLEAR     70  59  68 CALM      29.99S
L.A. AIRPORT   CLEAR     67  61  81 SE5       29.99F
SAN DIEGO      CLEAR     69  63  81 N3        30.01F
BURBANK        CLEAR     70  55  59 CALM      30.00S
ONTARIO        PTCLDY    69  53  56 CALM      30.01S
RIVERSIDE      CLEAR     67  50  54 SE3       30.01F
PALM SPRINGS   CLEAR     83  51  33 S6        29.87F
EL CENTRO NAS  CLEAR     84  39  20 NW9       29.80F
IMPERIAL       CLEAR     86  41  20 NW5       29.80F
BLYTHE         CLEAR     87  37  17 NW5       29.82S
NEEDLES        CLEAR     90  31  12 CALM      29.86F
$$

NVZ020-UTZ003-231100-
SOUTHERN NEVADA-UTAH

CITY           SKY/WX    TMP DP  RH WIND       PRES   REMARKS
LAS VEGAS      CLEAR     89  29  11 SW6       29.92S
SALT LAKE CITY PTCLDY    74  38  27 SE9       30.09S
$$

NMZ009-TXZ055-231100-
NEW MEXICO-WEST TEXAS

CITY           SKY/WX    TMP DP  RH WIND       PRES   REMARKS
ALBUQUERQUE    CLEAR     71  55  56 NW5       30.35R
EL PASO        LGT RAIN  73  69  87 CALM      30.19F
$$


........................KEY........................
SKY/WX - SKY CONDITION/WEATHER
TMP    - TEMPERATURE IN FAHRENHEIT
DP     - DEW POINT IN FAHRENHEIT
RH     - RELATIVE HUMIDITY IN PERCENT
WIND   - DIRECTION AND SPEED IN MILES PER HOUR (MPH)
VRB    - VARIABLE WIND DIRECTION
PRES   - MEAN SEA LEVEL PRESSURE IN INCHES OF MERCURY
         F - FALLING PRESSURE   R - RISING PRESSURE
         S - STEADY PRESSURE
VSB    - VISIBILITY IN MILES
HX     - HEAT INDEX IN FAHRENHEIT
WCI    - WIND CHILL INDEX IN FAHRENHEIT
TC     - TEMPERATURE IN CELSIUS WHICH IS ALSO KNOWN AS
         TEMPERATURE IN CENTIGRADE
AFB    - AIR FORCE BASE
         LUKE AFB IS LUKE AIR FORCE BASE
         DAVIS-MONTHAN IS DAVIS-MONTHAN AIR FORCE BASE
NAS    - NAVAL AIR STATION
         EL CENTRO NAS IS EL CENTRO NAVAL AIR STATION
N/A    - NOT AVAILABLE


USA.gov is the U.S. government's official web portal to all federal, state and local government web resources and services.